User: anonymous   Login
Location: Edmonton
(53.5500°N, 113.5000°W)
Time: 21:59:36
(UTC-06:00)
Language:

CZ-4C R/B - Orbit

View from above orbital plane
View from above orbital plane
View from above satellite
View from above satellite

Ground track
Ground track

The orbit data is extracted from the following two-line orbital elements,

1 36416U 10009D   16178.45724784 -.00000067  00000-0  21530-4 0  9993
2 36416  63.4418 137.7079 0352185 357.3308   2.5842 13.69498327315658
Epoch (UTC): 26 June 2016 10:58:26
Eccentricity: 0.0352185
inclination: 63.4418°
perigee height: 741 km
apogee height: 1261 km
right ascension of ascending node: 137.7079°
argument of perigee: 357.3308°
revolutions per day: 13.69498327
mean anomaly at epoch: 2.5842°
orbit number at epoch: 31565

The dashed part of the orbit path shows where the satellite is in the earth's shadow,  

DLR